FW7063 Weather Reports


time (UTC)temp
F
wind
direction
speed
knots
gust
knots
rain 1hr
in
rain 24hr
in
rain mn
in
humidity
%
barometer
mb
20260507224104 47 132 0.9 1.7 0.00 0.00 0.00 82 1016.3
20260507223603 47 141 0.0 0.9 0.00 0.00 0.00 82 1015.9
20260507223103 47 133 0.0 0.9 0.00 0.00 0.00 82 1015.9
20260507222603 47 143 0.9 0.9 0.00 0.00 0.00 81 1016.3
20260507222103 47 136 0.0 1.7 0.00 0.00 0.00 81 1016.3
20260507221603 48 124 0.9 1.7 0.00 0.00 0.00 80 1016.3
20260507221103 48 135 0.9 0.9 0.00 0.00 0.00 80 1016.3
20260507220604 48 143 0.9 0.9 0.00 0.00 0.00 79 1015.9
20260507215604 49 133 0.9 1.7 0.00 0.00 0.00 79 1016.3
20260507215106 49 134 0.9 0.9 0.00 0.00 0.00 78 1016.3
20260507214603 49 139 0.9 1.7 0.00 0.00 0.00 78 1016.3
20260507214103 49 137 0.9 1.7 0.00 0.00 0.00 78 1016.3
20260507213605 49 160 0.9 1.7 0.00 0.00 0.00 77 1016.3
20260507213104 50 147 0.9 1.7 0.00 0.00 0.00 77 1016.3
20260507212603 50 148 0.9 2.6 0.00 0.00 0.00 77 1016.3
20260507212103 50 141 0.9 1.7 0.00 0.00 0.00 78 1016.6
20260507211603 50 140 0.0 0.9 0.00 0.00 0.00 77 1016.3
20260507211104 50 152 0.9 2.6 0.00 0.00 0.00 77 1016.3
20260507210603 50 135 0.9 1.7 0.00 0.00 0.00 77 1016.3
20260507210103 50 136 0.0 2.6 0.00 0.00 0.00 77 1016.3
20260507205603 50 140 0.9 0.9 0.00 0.00 0.00 76 1015.9
20260507205104 50 140 0.9 1.7 0.00 0.00 0.00 76 1015.9
20260507204604 50 143 0.0 1.7 0.00 0.00 0.00 75 1015.9
20260507204105 50 141 0.0 0.0 0.00 0.00 0.00 75 1015.9
20260507203604 51 144 0.9 1.7 0.00 0.00 0.00 74 1015.9
20260507203103 51 137 0.0 0.0 0.00 0.00 0.00 74 1015.6
20260507202603 51 137 0.9 0.9 0.00 0.00 0.00 74 1015.9
20260507202103 51 137 0.0 0.9 0.00 0.00 0.00 74 1015.6
20260507201604 51 142 0.0 0.9 0.00 0.00 0.00 74 1015.6
20260507201103 52 140 0.0 1.7 0.00 0.00 0.00 74 1015.6
20260507200603 52 149 0.9 1.7 0.00 0.00 0.00 74 1015.6
20260507200103 52 125 2.6 4.3 0.00 0.00 0.00 73 1015.2
20260507195603 52 125 0.9 6.1 0.00 0.00 0.00 73 1015.2
20260507195104 52 182 0.9 1.7 0.00 0.00 0.00 72 1015.2
20260507194603 53 167 0.9 1.7 0.00 0.00 0.00 72 1015.2
20260507194103 53 150 0.9 1.7 0.00 0.00 0.00 72 1015.2
20260507193603 53 170 1.7 4.3 0.00 0.00 0.00 72 1014.9
20260507193103 53 91 0.9 0.9 0.00 0.00 0.00 71 1014.9
20260507192603 54 136 0.9 2.6 0.00 0.00 0.00 71 1015.2
20260507192104 54 178 1.7 1.7 0.00 0.00 0.00 71 1014.9
20260507191605 54 204 0.9 2.6 0.00 0.00 0.00 70 1014.9
20260507191103 54 179 1.7 6.1 0.00 0.00 0.00 70 1014.9
20260507190603 54 172 0.9 2.6 0.00 0.00 0.00 69 1014.9
20260507190104 55 194 0.0 0.9 0.00 0.00 0.00 69 1015.2
20260507185603 55 149 2.6 4.3 0.00 0.00 0.00 68 1014.6
20260507185103 55 167 0.0 0.9 0.00 0.00 0.00 68 1014.9
20260507184603 55 192 0.0 0.9 0.00 0.00 0.00 67 1014.9
20260507184103 56 212 0.0 0.0 0.00 0.00 0.00 67 1014.9
20260507183603 56 204 0.9 0.9 0.00 0.00 0.00 67 1014.9
20260507183104 56 203 0.0 1.7 0.00 0.00 0.00 66 1014.9
20260507182603 56 198 0.9 4.3 0.00 0.00 0.00 66 1014.9
20260507182104 56 164 1.7 2.6 0.00 0.00 0.00 66 1014.9
20260507181603 57 184 0.9 0.9 0.00 0.00 0.00 66 1014.6
20260507181104 57 195 0.9 2.6 0.00 0.00 0.00 65 1014.9
20260507180604 57 211 0.9 4.3 0.00 0.00 0.00 65 1014.9
20260507180104 57 213 2.6 5.2 0.00 0.00 0.00 64 1014.6
20260507175604 57 244 1.7 5.2 0.00 0.00 0.00 64 1014.6
20260507175104 57 204 2.6 6.1 0.00 0.00 0.00 63 1014.6
20260507174604 58 219 3.5 5.2 0.00 0.00 0.00 63 1014.6
20260507174103 58 185 1.7 2.6 0.00 0.00 0.00 62 1014.9
20260507173603 58 154 1.7 5.2 0.00 0.00 0.00 62 1014.6
20260507173105 58 200 0.0 2.6 0.00 0.00 0.00 62 1014.6
20260507172603 58 203 1.7 2.6 0.00 0.00 0.00 60 1014.6
20260507172106 58 174 2.6 5.2 0.00 0.00 0.00 60 1014.6
20260507171603 58 178 1.7 2.6 0.00 0.00 0.00 61 1014.6
20260507171103 58 155 1.7 2.6 0.00 0.00 0.00 61 1014.6
20260507170603 58 179 1.7 4.3 0.00 0.00 0.00 60 1014.6
20260507170103 58 143 1.7 6.1 0.00 0.00 0.00 60 1014.6
20260507165604 58 205 1.7 2.6 0.00 0.00 0.00 61 1014.9
20260507165104 58 205 2.6 4.3 0.00 0.00 0.00 61 1014.6
20260507164604 58 195 4.3 7.0 0.00 0.00 0.00 60 1014.6
20260507164105 58 145 2.6 7.0 0.00 0.00 0.00 60 1014.6
20260507163604 58 172 0.9 6.1 0.00 0.00 0.00 60 1014.6
20260507163104 58 193 0.9 4.3 0.00 0.00 0.00 60 1014.6
20260507162604 58 185 1.7 4.3 0.00 0.00 0.00 60 1014.6
20260507162103 58 130 0.9 2.6 0.00 0.00 0.00 60 1014.6
20260507161604 58 156 3.5 7.0 0.00 0.00 0.00 60 1014.6
20260507161104 58 89 1.7 5.2 0.00 0.00 0.00 60 1014.6
20260507160603 58 145 1.7 4.3 0.00 0.00 0.00 60 1014.6
20260507160104 58 169 1.7 7.0 0.00 0.00 0.00 60 1014.6
20260507155603 58 137 2.6 6.1 0.00 0.00 0.00 60 1014.6
20260507155103 58 175 0.9 7.0 0.00 0.00 0.00 60 1014.6
20260507154603 59 124 2.6 6.1 0.00 0.00 0.00 60 1014.6
20260507154103 59 157 3.5 5.2 0.00 0.00 0.00 60 1014.6
20260507153604 59 192 4.3 7.0 0.00 0.00 0.00 60 1014.6
20260507153103 59 152 0.9 1.7 0.00 0.00 0.00 60 1014.6
20260507152604 58 145 1.7 6.1 0.00 0.00 0.00 60 1014.9
20260507152103 58 184 0.0 1.7 0.00 0.00 0.00 61 1014.9
20260507151604 58 134 1.7 2.6 0.00 0.00 0.00 61 1014.9
20260507151103 57 161 1.7 5.2 0.00 0.00 0.00 60 1014.6
20260507150603 57 189 2.6 4.3 0.00 0.00 0.00 60 1014.9
20260507150107 57 179 0.0 2.6 0.00 0.00 0.00 60 1014.9
20260507145604 57 146 0.9 7.0 0.00 0.00 0.00 59 1014.9
20260507145103 57 169 0.0 4.3 0.00 0.00 0.00 60 1014.9
20260507144603 57 149 2.6 4.3 0.00 0.00 0.00 59 1014.9
20260507144104 58 180 0.9 2.6 0.00 0.00 0.00 59 1014.9
20260507143604 58 135 0.9 4.3 0.00 0.00 0.00 58 1014.9
20260507143104 58 176 3.5 5.2 0.00 0.00 0.00 58 1014.9
20260507142603 58 130 1.7 2.6 0.00 0.00 0.00 58 1014.9
20260507142104 59 169 0.9 4.3 0.00 0.00 0.00 57 1014.9
20260507141604 59 138 0.0 1.7 0.00 0.00 0.00 57 1014.9
20260507141104 58 144 0.0 4.3 0.00 0.00 0.00 56 1014.9
20260507140604 58 158 0.0 2.6 0.00 0.00 0.00 56 1014.6
20260507140104 58 173 0.0 0.9 0.00 0.00 0.00 56 1014.9
20260507135604 59 141 1.7 4.3 0.00 0.00 0.00 55 1014.9
20260507135103 59 128 0.9 6.1 0.00 0.00 0.00 55 1015.2
20260507134603 59 208 0.9 4.3 0.00 0.00 0.00 56 1014.9
20260507134104 59 168 0.9 1.7 0.00 0.00 0.00 54 1014.9
20260507133604 60 117 3.5 5.2 0.00 0.00 0.00 56 1014.9
20260507133104 60 135 2.6 6.1 0.00 0.00 0.00 55 1014.9
20260507132604 60 122 2.6 7.0 0.00 0.00 0.00 54 1014.9
20260507132103 61 90 1.7 2.6 0.00 0.00 0.00 55 1014.9
20260507131604 61 104 4.3 6.1 0.00 0.00 0.00 54 1014.9
20260507131103 60 121 1.7 7.0 0.00 0.00 0.00 56 1014.9
20260507130604 60 241 1.7 5.2 0.00 0.00 0.00 55 1014.9
20260507130104 60 58 0.0 6.1 0.00 0.00 0.00 56 1015.2
20260507125604 60 156 5.2 7.0 0.00 0.00 0.00 56 1014.9
20260507125104 59 139 5.2 6.1 0.00 0.00 0.00 56 1014.9
20260507124603 59 137 0.9 1.7 0.00 0.00 0.00 55 1015.2
20260507124103 59 119 0.0 0.9 0.00 0.00 0.00 55 1015.2
20260507123603 58 71 0.9 2.6 0.00 0.00 0.00 53 1015.2
20260507123106 58 49 0.9 1.7 0.00 0.00 0.00 54 1015.2
20260507122604 58 67 0.9 2.6 0.00 0.00 0.00 54 1015.2
20260507122104 59 183 2.6 5.2 0.00 0.00 0.00 54 1015.2
20260507121603 59 201 0.0 1.7 0.00 0.00 0.00 55 1015.6
20260507121103 60 103 0.9 1.7 0.00 0.00 0.00 57 1015.2
20260507120604 59 70 0.9 1.7 0.00 0.00 0.00 58 1015.2
20260507120104 59 183 0.9 1.7 0.00 0.00 0.00 60 1015.2
20260507115604 58 17 0.9 1.7 0.00 0.00 0.00 61 1015.2
20260507115104 57 140 0.9 4.3 0.00 0.00 0.00 61 1015.6
20260507114603 57 8 0.9 4.3 0.00 0.00 0.00 63 1015.6
20260507114104 57 166 0.9 2.6 0.00 0.00 0.00 63 1015.6
20260507113604 57 147 0.0 1.7 0.00 0.00 0.00 64 1015.2
20260507113104 57 158 0.9 1.7 0.00 0.00 0.00 65 1015.6
20260507112604 56 200 0.0 1.7 0.00 0.00 0.00 65 1015.6
20260507112103 56 144 2.6 4.3 0.00 0.00 0.00 65 1015.6
20260507111603 56 158 1.7 2.6 0.00 0.00 0.00 66 1015.6
20260507111106 55 167 0.0 2.6 0.00 0.00 0.00 67 1015.6
20260507110603 55 162 0.0 1.7 0.00 0.00 0.00 67 1015.6
20260507110104 55 181 0.0 2.6 0.00 0.00 0.00 67 1015.6
20260507105609 55 172 2.6 2.6 0.00 0.00 0.00 67 1015.6
20260507105103 55 129 1.7 2.6 0.00 0.00 0.00 67 1015.9
20260507104603 55 157 0.0 1.7 0.00 0.00 0.00 66 1015.9
20260507104103 55 157 2.6 4.3 0.00 0.00 0.00 66 1015.6
20260507103604 55 173 2.6 6.1 0.00 0.00 0.00 65 1015.9
20260507103104 55 187 1.7 5.2 0.00 0.00 0.00 65 1015.9
20260507102603 55 132 1.7 2.6 0.00 0.00 0.00 65 1015.9
20260507102103 55 179 0.9 1.7 0.00 0.00 0.00 65 1015.9
20260507101603 55 201 1.7 1.7 0.00 0.00 0.00 65 1015.9
20260507101104 55 160 0.0 1.7 0.00 0.00 0.00 64 1015.6
20260507100604 55 167 0.9 0.9 0.00 0.00 0.00 65 1015.6
20260507100103 55 174 0.9 0.9 0.00 0.00 0.00 65 1015.9
20260507095603 55 164 0.0 0.9 0.00 0.00 0.00 64 1015.6
20260507095104 55 160 0.0 1.7 0.00 0.00 0.00 65 1015.6
20260507094604 55 160 1.7 2.6 0.00 0.00 0.00 65 1015.6
20260507094104 56 172 0.9 2.6 0.00 0.00 0.00 64 1015.6
20260507093603 56 177 1.7 1.7 0.00 0.00 0.00 64 1015.6
20260507093104 56 139 3.5 4.3 0.00 0.00 0.00 64 1015.6
20260507092604 56 211 0.9 1.7 0.00 0.00 0.00 63 1015.6
20260507092104 57 152 0.9 2.6 0.00 0.00 0.00 61 1015.6
20260507091603 57 163 2.6 5.2 0.00 0.00 0.00 62 1015.6
20260507091104 57 128 1.7 6.1 0.00 0.00 0.00 63 1015.6
20260507090603 57 153 0.9 2.6 0.00 0.00 0.00 66 1015.6
20260507090103 56 87 0.9 1.7 0.00 0.00 0.00 67 1015.6
20260507085603 56 142 0.9 4.3 0.00 0.00 0.00 68 1015.6
20260507085104 55 179 0.9 1.7 0.00 0.00 0.00 69 1015.6
20260507084604 55 87 0.9 2.6 0.00 0.00 0.00 71 1015.6
20260507084103 54 162 0.9 5.2 0.00 0.00 0.00 72 1015.6
20260507083604 54 222 0.9 1.7 0.00 0.00 0.00 73 1015.6
20260507083104 53 166 0.0 1.7 0.00 0.00 0.00 72 1015.6
20260507082604 54 22 0.9 1.7 0.00 0.00 0.00 74 1015.6
20260507082103 54 207 2.6 4.3 0.00 0.00 0.00 74 1015.6
20260507081604 54 61 0.9 2.6 0.00 0.00 0.00 73 1015.6
20260507081103 53 163 0.9 2.6 0.00 0.00 0.00 76 1015.6
20260507080603 53 350 0.9 1.7 0.00 0.00 0.00 76 1015.6
20260507080103 53 61 0.9 1.7 0.00 0.00 0.00 78 1015.9
20260507075603 52 145 0.9 0.9 0.00 0.00 0.00 79 1015.6
20260507075104 52 143 1.7 2.6 0.00 0.00 0.00 79 1015.6
20260507074606 51 174 0.0 1.7 0.00 0.00 0.00 80 1015.6
20260507074103 51 159 0.9 2.6 0.00 0.00 0.00 80 1015.6
20260507073603 51 153 0.0 0.9 0.00 0.00 0.00 81 1015.6
20260507073103 50 151 0.9 2.6 0.00 0.00 0.00 81 1015.6
20260507072605 50 55 0.9 0.9 0.00 0.00 0.00 82 1015.6
20260507072103 49 11 0.0 0.9 0.00 0.00 0.00 82 1015.6
20260507071604 49 169 0.0 0.0 0.00 0.00 0.00 82 1015.6
20260507071103 48 180 0.9 0.9 0.00 0.00 0.00 82 1015.6
20260507070604 48 61 0.9 1.7 0.00 0.00 0.00 82 1015.6
20260507065603 48 37 0.0 0.9 0.00 0.00 0.00 81 1015.6
20260507065103 48 37 0.0 0.0 0.00 0.00 0.00 81 1015.6
20260507064603 47 37 0.0 0.9 0.00 0.00 0.00 81 1015.6
20260507064103 47 37 0.0 0.0 0.00 0.00 0.00 81 1015.6
20260507063603 47 37 0.0 0.0 0.00 0.00 0.00 81 1015.6
20260507063103 48 37 0.9 0.9 0.00 0.00 0.00 81 1015.6
20260507062603 47 37 0.0 0.0 0.00 0.00 0.00 82 1015.6
20260507062103 47 37 0.0 0.0 0.00 0.00 0.00 83 1015.6
20260507061603 46 37 0.0 0.9 0.00 0.00 0.00 83 1015.6
20260507061105 46 37 0.0 0.0 0.00 0.00 0.00 84 1015.6
20260507060604 46 37 0.0 0.0 0.00 0.00 0.00 86 1015.2
20260507060104 45 37 0.0 0.0 0.00 0.00 0.00 87 1015.2
20260507055603 43 37 0.0 0.0 0.00 0.00 0.00 86 1015.6
20260507055103 42 37 0.0 0.0 0.00 0.00 0.00 86 1015.6
20260507054603 42 37 0.0 0.0 0.00 0.00 0.00 86 1015.6
20260507054104 42 37 0.0 0.0 0.00 0.00 0.00 86 1015.6
20260507053605 42 37 0.0 0.0 0.00 0.00 0.00 86 1015.6
20260507053104 41 37 0.0 0.0 0.00 0.00 0.00 85 1015.6
20260507052603 41 37 0.0 0.0 0.00 0.00 0.00 85 1014.9
20260507052105 41 37 0.0 0.0 0.00 0.00 0.00 85 1015.6
20260507051603 41 37 0.0 0.0 0.00 0.00 0.00 85 1015.2
20260507051104 41 37 0.0 0.0 0.00 0.00 0.00 85 1015.2
20260507050603 41 37 0.0 0.0 0.00 0.00 0.00 85 1015.2
20260507050104 41 37 0.0 0.0 0.00 0.00 0.00 85 1015.2
20260507045604 41 37 0.0 0.0 0.00 0.00 0.00 85 1015.2
20260507045103 41 37 0.0 0.0 0.00 0.00 0.00 84 1015.2
20260507044603 42 37 0.0 0.0 0.00 0.00 0.00 84 1015.2
20260507044104 42 37 0.0 0.0 0.00 0.00 0.00 84 1014.9
20260507043603 42 37 0.0 0.0 0.00 0.00 0.00 84 1015.2
20260507043103 42 37 0.0 0.0 0.00 0.00 0.00 84 1015.2
20260507042603 42 37 0.0 0.0 0.00 0.00 0.00 84 1014.9
20260507042103 42 37 0.0 0.0 0.00 0.00 0.00 83 1015.2
20260507041603 42 37 0.0 0.0 0.00 0.00 0.00 83 1014.9
20260507041103 43 37 0.0 0.0 0.00 0.00 0.00 83 1015.2
20260507040604 43 37 0.0 0.0 0.00 0.00 0.00 83 1015.2
20260507040104 43 37 0.0 0.0 0.00 0.00 0.00 83 1014.9
20260507035604 43 37 0.0 0.0 0.00 0.00 0.00 83 1014.9
20260507035103 43 37 0.0 0.0 0.00 0.00 0.00 83 1014.9
20260507034603 44 37 0.0 0.0 0.00 0.00 0.00 83 1014.9
20260507034104 44 37 0.0 0.0 0.00 0.00 0.00 82 1014.9
20260507033606 44 37 0.0 0.0 0.00 0.00 0.00 82 1014.9
20260507033103 44 37 0.0 0.0 0.00 0.00 0.00 82 1014.9
20260507032603 44 37 0.0 0.0 0.00 0.00 0.00 82 1014.9
20260507032103 44 37 0.0 0.0 0.00 0.00 0.00 83 1014.6
20260507031605 44 37 0.0 0.9 0.00 0.00 0.00 83 1014.9
20260507031103 44 37 0.0 0.9 0.00 0.00 0.00 82 1014.9
20260507030604 44 37 0.0 0.9 0.00 0.00 0.00 82 1014.6
20260507025604 45 20 0.0 0.9 0.00 0.00 0.00 82 1014.9
20260507025103 45 19 0.0 0.0 0.00 0.00 0.00 81 1014.9
20260507024610 45 19 0.0 0.0 0.00 0.00 0.00 81 1014.9
20260507024105 45 19 0.0 0.0 0.00 0.00 0.00 82 1014.6
20260507023604 45 19 0.0 0.0 0.00 0.00 0.00 82 1014.9
20260507023103 45 29 0.0 0.9 0.00 0.00 0.00 81 1014.6
20260507022603 45 18 0.0 0.9 0.00 0.00 0.00 81 1014.6
20260507022104 45 28 0.0 0.9 0.00 0.00 0.00 81 1014.9
20260507021603 46 21 0.0 1.7 0.00 0.00 0.00 81 1014.6
20260507021104 46 18 0.9 2.6 0.00 0.00 0.00 81 1014.6
20260507020604 46 35 0.0 0.0 0.00 0.00 0.00 80 1014.6
20260507020103 46 36 0.0 0.0 0.00 0.00 0.00 80 1014.6
20260507015604 46 36 0.0 0.0 0.00 0.00 0.00 81 1014.6
20260507015104 46 19 0.0 0.9 0.00 0.00 0.00 81 1014.6
20260507014604 46 42 0.0 0.9 0.00 0.00 0.00 80 1014.6
20260507014105 45 20 0.0 2.6 0.00 0.00 0.00 81 1014.6
20260507013603 45 14 0.9 1.7 0.00 0.00 0.00 79 1014.6
20260507013103 45 3 0.0 0.9 0.00 0.00 0.00 78 1014.6
20260507012603 45 3 0.0 0.0 0.00 0.00 0.00 78 1014.6
20260507012104 45 3 0.9 0.9 0.00 0.00 0.00 78 1014.6
20260507011603 45 17 0.9 0.9 0.00 0.00 0.00 77 1014.6
20260507011103 46 18 0.0 0.0 0.00 0.00 0.00 77 1014.9
20260507010604 46 18 0.0 0.0 0.00 0.00 0.00 77 1014.6
20260507005603 46 17 0.0 0.9 0.00 0.00 0.00 76 1014.6
20260507005103 46 18 0.0 0.9 0.00 0.00 0.00 76 1014.6
20260507004603 46 18 0.0 0.0 0.00 0.00 0.00 75 1014.6
20260507004103 46 18 0.0 0.0 0.00 0.00 0.00 74 1014.6
20260507003603 47 17 0.0 0.0 0.00 0.00 0.00 74 1014.6
20260507003103 47 18 0.0 0.0 0.00 0.00 0.00 74 1014.6
20260507002604 47 18 0.0 0.0 0.00 0.00 0.00 74 1014.6
20260507002103 48 18 0.0 0.9 0.00 0.00 0.00 73 1014.6
20260507001603 48 18 0.0 0.9 0.00 0.00 0.00 73 1014.6
20260507001104 48 18 0.0 0.0 0.00 0.00 0.00 72 1014.6
20260507000603 48 25 0.0 0.9 0.00 0.00 0.00 73 1014.6
20260506235604 48 32 0.0 0.9 0.00 0.00 0.00 72 1014.6
20260506235104 49 16 0.0 0.9 0.00 0.00 0.00 72 1014.2
20260506234604 49 9 0.0 0.9 0.00 0.00 0.00 72 1014.6
20260506234104 49 30 0.0 0.9 0.00 0.00 0.00 72 1014.2
20260506233603 49 30 0.0 0.9 0.00 0.00 0.00 71 1014.2
20260506233104 49 46 0.9 0.9 0.00 0.00 0.00 71 1014.6
20260506232603 50 46 0.0 0.9 0.00 0.00 0.00 72 1014.2
20260506232103 50 26 0.0 0.9 0.00 0.00 0.00 72 1014.2
20260506231604 50 355 0.9 2.6 0.00 0.00 0.00 71 1014.2
20260506231103 50 4 0.0 0.9 0.00 0.00 0.00 71 1014.6
20260506230603 50 4 0.0 0.9 0.00 0.00 0.00 71 1014.2
20260506230103 50 22 0.0 0.9 0.00 0.00 0.00 70 1014.6
20260506225603 50 4 0.0 0.9 0.00 0.00 0.00 70 1014.2
20260506225103 50 4 0.0 0.9 0.00 0.00 0.00 70 1014.2
20260506224603 50 7 0.0 0.9 0.00 0.00 0.00 70 1014.2